H-3 R/B, 61734

Orbit data source: Space-Track

H-3 R/B, 61734 is space debris in HEO originally from a launch on Mon, 04 Nov 2024 UTC launched from the Tanegashima Space Center (TNSTA). Debris objects in space refer to the collection of defunct objects orbiting the Earth. Examples of debris include non-operational satellites, rocket bodies, and fragments generated from explosions, collisions, or faulty payload assembly.

Loading next visibility...
H-3 R/B details
Identifier
61734, 2024-198B
Orbit
HEO
Last TLE update1 day ago
Origin
Flag of JPMHI (JP / JPN)
ManufacturerMHI Tobishima
MissionSpacecraft
Bus & MotorH-2A STAGE 2, Unknown motor
Mass2,500 kg wet, 2,500 kg dry
Launch date (UTC)
2024-11-04 (2 months ago)
Launch vehicleUnknown
Launch site
Tanegashima Space Center (TNSTA)
Object type
Payload
Rocket body
Debris
Shape & HBRUnknown
Radar Cross SectionRCS unknown

Expand to show TLE details & history

TLE from 1 day ago
0 H-3 R/B
1 61734U 24198B   24360.36809477  .00090193  36071-6  51668-3 0  9998
2 61734  24.4139 166.7036 7221022 214.4953  64.5721  2.41517858  1208
Epoch: 2024-12-25T08:50Z
Definitive object data (Epoch: 2024-12-25T08:50:03.388Z)
Latitude-0.00001°
Longitude-60.25938°
Altitude21,328.184 km
Speed3.433 km/s
True Right ascension11h 06m 28s
True Declination0° 00' 00"
Sunlit
Object was in daylight at TLE epoch
Visualization TLE readout
Latitude24.35123°
Longitude25.89264°
Altitude14,037.841 km
Speed4.696 km/s
Apparent Right ascension17h 51m 03s
Apparent Declination12° 55' 06"
Sunlit
Object is in daylight
Visualization observer readout
Local Sidereal Time11:08:04
Azimuth73.257° E
Elevation0.233°
Doppler factor1
Orbital elements
Apogee altitude34,039.684 km
Perigee altitude144.138 km
Semi-major axis23,470.048 km
Eccentricity0.7221022
Inclination24.4139°
RAAN166.7036°
Arg. of periapsis214.4953°
True anomaly145.50797°
Mean anomaly64.5721°
Eccentric anomaly104.60806°
Mean motion0.60363 °/min
BSTAR0.00051668
Orbital period596.39 mins
Loading maneuver chart data...
Loading historical data...
Loading historical data...
Loading historical data...
Loading historical data...
Loading historical data...
Loading historical data...
Loading historical data...
Other satellites on launch #198 in the year 2024 (2024-11-04 UTC)

H-3 R/B Visibility forecast

Observer location: undefined°, undefined

Span
Click to sort rows by Start time (UTC) header in descending order
Start Az.
Max El. time (UTC)
Max El. Az.
Max El.
End time (UTC)
End Az.
512 mins2024-12-26 14:00:40.039Z234.884° WSW2024-12-26 16:04:40.039Z246.153° WSW25.426°2024-12-26 22:32:40.039Z196.902° SSW
145 mins2024-12-27 09:21:40.039Z177.368° S2024-12-27 11:46:40.039Z153.298° SSE36.765°2024-12-27 11:46:40.039Z153.298° SSE
|